Weather History for KJKJ - March, 2013

Change the Weather History Date:

Sunday, March 3, 2013

  Actual Average (KFAR) Record (KFAR)
Temperature  
Mean Temperature 21 °F 21 °F  
Max Temperature 32 °F 29 °F 61 °F (2000)
Min Temperature 10 °F 13 °F -23 °F (1884)
Degree Days  
Heating Degree Days 44 44  
Month to date heating degree days 133  
Since 1 July heating degree days 6811  
Cooling Degree Days 0 0  
Month to date cooling degree days 0  
Year to date cooling degree days 0  
Moisture  
Dew Point 17 °F    
Average Humidity 76    
Maximum Humidity 100    
Minimum Humidity 59    
Precipitation  
Precipitation 0.00 in 0.03 in 0.85 in (1970)
Month to date precipitation 0.11  
Year to date precipitation 1.42  
Snow  
Snow 0.00 in 0.40 in 12.00 in (1997)
Month to date snowfall 1.1  
Since 1 July snowfall 39.1  
Snow Depth -    
Sea Level Pressure  
Sea Level Pressure 29.93 in    
Wind  
Wind Speed 9 mph (SSE)    
Max Wind Speed 21 mph    
Max Gust Speed 25 mph    
Visibility 10 miles    
Events      
T = Trace of Precipitation, MM = Missing Value Source: NWS Daily Summary

Daily Weather History Graph

Daily Weather History Graph

Search for Another Location

Airport or City:

Trip Planner

Search our weather history database for the weather conditions in past years. The results will help you decide how hot, cold, wet, or windy it might be!

Date:

Astronomy

Mar. 03, 2013 Rise Set
Actual Time 7:02 AM CST 6:15 PM CST
Civil Twilight 6:31 AM CST 6:46 PM CST
Nautical Twilight 5:56 AM CST 7:21 PM CST
Astronomical Twilight 5:21 AM CST 7:56 PM CST
Moon 12:19 AM CST (3/3) 9:53 AM CST (3/3)
Length of Visible Light 12h 14m
Length of Day
11h 13m
Waning Gibbous, 63% of the Moon is Illuminated
Mar 3
Waning Gibbous
Mar 4
Last Quarter
Mar 11
New
Mar 19
First Quarter
Mar 27
Full

Hourly Weather History & Observations

Time (CST) Temp. Windchill Dew Point Humidity Pressure Visibility Wind Dir Wind Speed Gust Speed Precip Events Conditions
12:14 AM 17.6 °F 9.3 °F 10.4 °F 73% 30.07 in 10.0 mi South 5.8 mph - N/A   Clear
12:35 AM 17.6 °F 8.2 °F 10.4 °F 73% 30.07 in 10.0 mi South 6.9 mph - N/A   Clear
12:55 AM 17.6 °F 9.3 °F 10.4 °F 73% 30.07 in 10.0 mi South 5.8 mph - N/A   Clear
1:14 AM 15.8 °F 7.2 °F 10.4 °F 79% 30.07 in 10.0 mi South 5.8 mph - N/A   Clear
1:35 AM 15.8 °F 7.2 °F 10.4 °F 79% 30.06 in 10.0 mi South 5.8 mph - N/A   Clear
2:14 AM 15.8 °F 8.6 °F 10.4 °F 79% 30.05 in 10.0 mi South 4.6 mph - N/A   Clear
2:35 AM 14.0 °F 6.5 °F 10.4 °F 86% 30.04 in 10.0 mi South 4.6 mph - N/A   Clear
2:54 AM 15.8 °F 8.6 °F 10.4 °F 79% 30.03 in 10.0 mi South 4.6 mph - N/A   Clear
3:15 AM 14.0 °F 5.1 °F 10.4 °F 86% 30.02 in 10.0 mi SSE 5.8 mph - N/A   Clear
3:35 AM 15.8 °F 7.2 °F 10.4 °F 79% 30.02 in 10.0 mi SSE 5.8 mph - N/A   Clear
3:54 AM 14.0 °F 5.1 °F 10.4 °F 86% 30.02 in 10.0 mi SSE 5.8 mph - N/A   Clear
4:15 AM 15.8 °F 8.6 °F 10.4 °F 79% 30.01 in 10.0 mi SSE 4.6 mph - N/A   Clear
4:35 AM 14.0 °F 6.5 °F 10.4 °F 86% 30.01 in 10.0 mi SSE 4.6 mph - N/A   Clear
4:54 AM 14.0 °F 8.2 °F 10.4 °F 86% 30.01 in 10.0 mi SSE 3.5 mph - N/A   Clear
5:15 AM 12.2 °F - 10.4 °F 92% 30.01 in 10.0 mi Calm Calm - N/A   Clear
5:35 AM 10.4 °F 4.0 °F 8.6 °F 92% 30.01 in 10.0 mi ESE 3.5 mph - N/A   Clear
6:15 AM 10.4 °F 2.2 °F 8.6 °F 92% 30.01 in 10.0 mi SE 4.6 mph - N/A   Clear
6:35 AM 12.2 °F 6.1 °F 10.4 °F 92% 30.01 in 10.0 mi SE 3.5 mph - N/A   Clear
6:54 AM 10.4 °F 4.0 °F 10.4 °F 100% 30.00 in 10.0 mi SE 3.5 mph - N/A   Clear
7:15 AM 14.0 °F 8.2 °F 12.2 °F 93% 29.99 in 10.0 mi SE 3.5 mph - N/A   Mostly Cloudy
7:35 AM 15.8 °F 7.2 °F 12.2 °F 86% 29.99 in 10.0 mi ESE 5.8 mph - N/A   Overcast
7:55 AM 15.8 °F 6.1 °F 12.2 °F 86% 29.98 in 10.0 mi SE 6.9 mph - N/A   Overcast
8:15 AM 17.6 °F 7.3 °F 14.0 °F 86% 29.98 in 10.0 mi SE 8.1 mph - N/A   Mostly Cloudy
8:34 AM 19.4 °F 7.9 °F 15.8 °F 86% 29.98 in 10.0 mi SE 10.4 mph - N/A   Scattered Clouds
8:55 AM 19.4 °F 7.2 °F 15.8 °F 86% 29.98 in 10.0 mi SSE 11.5 mph - N/A   Clear
9:15 AM 19.4 °F 7.2 °F 17.6 °F 93% 29.97 in 10.0 mi SSE 11.5 mph - N/A   Clear
9:34 AM 21.2 °F 9.5 °F 17.6 °F 86% 29.97 in 10.0 mi SSE 11.5 mph - N/A   Clear
9:55 AM 21.2 °F 9.5 °F 19.4 °F 93% 29.96 in 10.0 mi SSE 11.5 mph - N/A   Clear
10:15 AM 23.0 °F 11.1 °F 19.4 °F 86% 29.96 in 10.0 mi SSE 12.7 mph - N/A   Clear
10:34 AM 24.8 °F 12.9 °F 19.4 °F 80% 29.95 in 10.0 mi SSE 13.8 mph - N/A   Clear
10:55 AM 24.8 °F 12.9 °F 19.4 °F 80% 29.95 in 10.0 mi SSE 13.8 mph - N/A   Clear
11:15 AM 24.8 °F 12.9 °F 21.2 °F 86% 29.95 in 10.0 mi SSE 13.8 mph 17.3 mph N/A   Clear
11:34 AM 26.6 °F 14.7 °F 21.2 °F 80% 29.94 in 10.0 mi SSE 15.0 mph - N/A   Clear
11:55 AM 26.6 °F 14.7 °F 21.2 °F 80% 29.94 in 10.0 mi SSE 15.0 mph - N/A   Clear
12:14 PM 26.6 °F 15.7 °F 21.2 °F 80% 29.93 in 10.0 mi SSE 12.7 mph - N/A   Scattered Clouds
12:35 PM 28.4 °F 18.5 °F 21.2 °F 74% 29.92 in 10.0 mi SSE 11.5 mph - N/A   Clear
12:55 PM 28.4 °F 18.5 °F 23.0 °F 80% 29.91 in 10.0 mi SSE 11.5 mph - N/A   Clear
1:14 PM 30.2 °F 20.8 °F 24.8 °F 80% 29.90 in 10.0 mi SSE 11.5 mph - N/A   Clear
1:35 PM 30.2 °F 21.9 °F 24.8 °F 80% 29.90 in 10.0 mi South 9.2 mph - N/A   Clear
1:55 PM 30.2 °F 20.8 °F 24.8 °F 80% 29.89 in 10.0 mi SSE 11.5 mph - N/A   Mostly Cloudy
2:14 PM 30.2 °F 18.9 °F 24.8 °F 80% 29.88 in 10.0 mi SE 16.1 mph - N/A   Mostly Cloudy
2:35 PM 32.0 °F 23.0 °F 24.8 °F 75% 29.88 in 10.0 mi SE 11.5 mph - N/A   Scattered Clouds
2:54 PM 32.0 °F 22.5 °F 23.0 °F 69% 29.88 in 10.0 mi SE 12.7 mph - N/A   Scattered Clouds
3:15 PM 32.0 °F 21.2 °F 23.0 °F 69% 29.88 in 10.0 mi SSE 16.1 mph 23.0 mph N/A   Scattered Clouds
3:35 PM 32.0 °F 22.1 °F 24.8 °F 75% 29.87 in 10.0 mi SE 13.8 mph 20.7 mph N/A   Scattered Clouds
3:54 PM 32.0 °F 22.5 °F 24.8 °F 75% 29.87 in 10.0 mi SE 12.7 mph 18.4 mph N/A   Scattered Clouds
4:15 PM 32.0 °F 24.2 °F 24.8 °F 75% 29.87 in 10.0 mi SE 9.2 mph 19.6 mph N/A   Scattered Clouds
4:35 PM 30.2 °F 20.2 °F 21.2 °F 69% 29.87 in 10.0 mi SE 12.7 mph - N/A   Mostly Cloudy
4:54 PM 30.2 °F 19.8 °F 21.2 °F 69% 29.88 in 10.0 mi SE 13.8 mph - N/A   Mostly Cloudy
5:15 PM 30.2 °F 19.8 °F 19.4 °F 64% 29.88 in 10.0 mi SE 13.8 mph 20.7 mph N/A   Scattered Clouds
5:35 PM 30.2 °F 19.8 °F 19.4 °F 64% 29.87 in 10.0 mi SE 13.8 mph 19.6 mph N/A   Clear
5:54 PM 30.2 °F 21.3 °F 19.4 °F 64% 29.87 in 10.0 mi SE 10.4 mph - N/A   Clear
6:35 PM 30.2 °F 21.3 °F 19.4 °F 64% 29.86 in 10.0 mi SE 10.4 mph - N/A   Scattered Clouds
6:55 PM 30.2 °F 20.8 °F 17.6 °F 60% 29.86 in 10.0 mi SE 11.5 mph 19.6 mph N/A   Clear
7:15 PM 30.2 °F 20.8 °F 17.6 °F 60% 29.86 in 10.0 mi SE 11.5 mph - N/A   Scattered Clouds
7:34 PM 30.2 °F 19.3 °F 17.6 °F 60% 29.86 in 10.0 mi SE 15.0 mph 18.4 mph N/A   Overcast
7:55 PM 30.2 °F 19.8 °F 17.6 °F 60% 29.86 in 10.0 mi SE 13.8 mph - N/A   Overcast
8:15 PM 30.2 °F 19.8 °F 17.6 °F 60% 29.86 in 10.0 mi SE 13.8 mph - N/A   Overcast
8:35 PM 30.2 °F 19.3 °F 17.6 °F 60% 29.85 in 10.0 mi SE 15.0 mph - N/A   Scattered Clouds
8:55 PM 28.4 °F 17.5 °F 17.6 °F 64% 29.85 in 10.0 mi SE 13.8 mph - N/A   Clear
9:14 PM 28.4 °F 18.0 °F 17.6 °F 64% 29.85 in 10.0 mi SE 12.7 mph 19.6 mph N/A   Clear
9:35 PM 28.4 °F 18.0 °F 17.6 °F 64% 29.85 in 10.0 mi SE 12.7 mph 19.6 mph N/A   Mostly Cloudy
9:55 PM 28.4 °F 17.5 °F 17.6 °F 64% 29.85 in 10.0 mi SE 13.8 mph 18.4 mph N/A   Mostly Cloudy
10:14 PM 28.4 °F 17.0 °F 17.6 °F 64% 29.84 in 10.0 mi SE 15.0 mph - N/A   Clear
10:35 PM 28.4 °F 16.2 °F 15.8 °F 59% 29.84 in 10.0 mi SE 17.3 mph 21.9 mph N/A   Mostly Cloudy
10:55 PM 28.4 °F 15.4 °F 15.8 °F 59% 29.84 in 10.0 mi SE 19.6 mph 23.0 mph N/A   Overcast
11:15 PM 28.4 °F 15.1 °F 15.8 °F 59% 29.84 in 10.0 mi SE 20.7 mph - N/A   Overcast
11:35 PM 28.4 °F 15.8 °F 15.8 °F 59% 29.84 in 10.0 mi SE 18.4 mph 25.3 mph N/A   Overcast
11:54 PM 28.4 °F 15.8 °F 15.8 °F 59% 29.84 in 10.0 mi SE 18.4 mph 23.0 mph N/A   Overcast